Estación de Colegual INIA

Ultimos registro cada 15 minutos 95
Estación Fecha / Hora Temperatura Humedad Lluvia Velocidad Dirección Radiación Presion
95 Colegual INIA 03-05-2026 23:30 8,8 97,5 0 2,1 225 0 993
94 Colegual INIA 03-05-2026 23:15 9 97 0 2,3 239 0 993
93 Colegual INIA 03-05-2026 23:00 9,1 96,8 0 2,2 246 0 993
92 Colegual INIA 03-05-2026 22:45 9 97,2 0 2,1 243 0 993
91 Colegual INIA 03-05-2026 22:30 9 96,7 0,1 2,2 247 0 993
90 Colegual INIA 03-05-2026 22:15 9,1 96,9 0 2,4 227 0 993
89 Colegual INIA 03-05-2026 22:00 9,4 95,4 0,1 2,4 206 0 993
88 Colegual INIA 03-05-2026 21:45 9,6 93,7 0 2,6 194 0 993
87 Colegual INIA 03-05-2026 21:30 9,4 96,8 0 2,3 213 0 993
86 Colegual INIA 03-05-2026 21:15 8,9 97,6 0 1,4 232 0 993
85 Colegual INIA 03-05-2026 21:00 8,5 96,9 0 1,1 248 0 993
84 Colegual INIA 03-05-2026 20:45 8,4 95,7 0 1,5 243 0 992
83 Colegual INIA 03-05-2026 20:30 8,5 95,3 0 1,5 229 0 992
82 Colegual INIA 03-05-2026 20:15 8,9 96,2 0 1,3 238 0 992
81 Colegual INIA 03-05-2026 20:00 9,4 96 0 1 247 0 992
80 Colegual INIA 03-05-2026 19:45 9,6 96,2 0 0,9 264 0 992
79 Colegual INIA 03-05-2026 19:30 9,9 96,2 0 0,2 231 0 992
78 Colegual INIA 03-05-2026 19:15 10,1 95,1 0 0,3 195 0 992
77 Colegual INIA 03-05-2026 19:00 10 95,6 0 1,5 210 0 992
76 Colegual INIA 03-05-2026 18:45 9,8 96,2 0,1 1,8 213 0 992
75 Colegual INIA 03-05-2026 18:30 9,7 94,7 0 1,8 190 0 992
74 Colegual INIA 03-05-2026 18:15 10,3 92,5 0,2 3,5 145 1 992
73 Colegual INIA 03-05-2026 18:00 10,9 89,7 0 3,1 145 2 991
72 Colegual INIA 03-05-2026 17:45 11,1 90,5 0,1 2,3 162 6 991
71 Colegual INIA 03-05-2026 17:30 11,1 89,7 0,1 3,1 146 7 991
70 Colegual INIA 03-05-2026 17:15 11,3 90,5 0,4 2,4 142 11 991
69 Colegual INIA 03-05-2026 17:00 11,7 94 0,8 1,9 122 12 991
68 Colegual INIA 03-05-2026 16:45 11,9 94 0 1,3 172 46 991
67 Colegual INIA 03-05-2026 16:30 11,9 93,2 0 2,4 236 75 990
66 Colegual INIA 03-05-2026 16:15 12,1 93,8 0 2,8 231 152 990
65 Colegual INIA 03-05-2026 16:00 11,9 95,2 0 2,4 212 164 990
64 Colegual INIA 03-05-2026 15:45 11,4 95,1 0 1,3 242 46 990
63 Colegual INIA 03-05-2026 15:30 11,4 94,1 0,1 1,8 222 33 990
62 Colegual INIA 03-05-2026 15:15 11,5 96 1,9 0,9 342 24 990
61 Colegual INIA 03-05-2026 15:00 11,8 94,9 0 1,9 262 109 990
60 Colegual INIA 03-05-2026 14:45 11,6 94,5 0 2,6 252 246 990
59 Colegual INIA 03-05-2026 14:30 11,2 96 0 3 247 155 990
58 Colegual INIA 03-05-2026 14:15 11 97,1 0,1 2,8 234 184 990
57 Colegual INIA 03-05-2026 14:00 10,5 97,6 0,1 2,9 235 155 990
56 Colegual INIA 03-05-2026 13:45 10,4 97,6 0,1 2,5 230 108 990
55 Colegual INIA 03-05-2026 13:30 10,2 96,6 0 3 225 284 990
54 Colegual INIA 03-05-2026 13:15 9,7 97,5 0 2,7 199 82 990
53 Colegual INIA 03-05-2026 13:00 9,7 96,9 0 3,8 210 78 990
52 Colegual INIA 03-05-2026 12:45 9,8 96,2 0,1 5,1 225 115 990
51 Colegual INIA 03-05-2026 12:30 10 96,1 0 5 222 214 990
50 Colegual INIA 03-05-2026 12:15 9,7 97,1 0 3,9 223 270 990
49 Colegual INIA 03-05-2026 12:00 9,1 97,5 0 3,7 220 94 990
48 Colegual INIA 03-05-2026 11:45 9 97,2 0 3,6 219 74 990
47 Colegual INIA 03-05-2026 11:30 8,8 97,8 0,2 4,2 226 67 990
46 Colegual INIA 03-05-2026 11:15 8,7 97,7 0,6 4,5 220 46 989
45 Colegual INIA 03-05-2026 11:00 8,6 97,7 0,5 4,9 228 43 989
44 Colegual INIA 03-05-2026 10:45 8,5 97,5 0 4,9 232 36 989
43 Colegual INIA 03-05-2026 10:30 8,4 97,7 0,1 5,4 234 43 989
42 Colegual INIA 03-05-2026 10:15 8,2 97,6 0 5,3 236 27 989
41 Colegual INIA 03-05-2026 10:00 8,1 97,5 0 4,9 233 47 989
40 Colegual INIA 03-05-2026 09:45 8 97,6 0 4,9 233 38 989
39 Colegual INIA 03-05-2026 09:30 7,8 97,2 0 4,6 233 29 989
38 Colegual INIA 03-05-2026 09:15 7,8 96,8 0 5,1 232 21 989
37 Colegual INIA 03-05-2026 09:00 7,7 96,9 0 4,7 234 18 989
36 Colegual INIA 03-05-2026 08:45 7,6 96,8 0 5,4 237 17 989
35 Colegual INIA 03-05-2026 08:30 7,5 96,6 0 5,2 238 15 989
34 Colegual INIA 03-05-2026 08:15 7,3 97 0 4,9 234 9 989
33 Colegual INIA 03-05-2026 08:00 6,9 97,6 0 4,4 241 3 989
32 Colegual INIA 03-05-2026 07:45 6,6 97,8 0 4,6 242 1 989
31 Colegual INIA 03-05-2026 07:30 6,4 97,5 0 4,6 245 0 990
30 Colegual INIA 03-05-2026 07:15 6,3 96,1 0 5 243 0 990
29 Colegual INIA 03-05-2026 07:00 6,3 96,3 0 4,8 246 0 989
28 Colegual INIA 03-05-2026 06:45 6,2 95,6 0 4,7 246 0 989
27 Colegual INIA 03-05-2026 06:30 6,2 93,7 0 4,8 243 0 989
26 Colegual INIA 03-05-2026 06:15 6,2 93,2 0,1 4,7 248 0 989
25 Colegual INIA 03-05-2026 06:00 6,2 92,7 0 4,2 246 0 990
24 Colegual INIA 03-05-2026 05:45 6,3 90,4 0 4,6 243 0 989
23 Colegual INIA 03-05-2026 05:30 6,2 90,3 0,1 4,7 243 0 990
22 Colegual INIA 03-05-2026 05:15 6,3 93,8 0,1 4,2 248 0 990
21 Colegual INIA 03-05-2026 05:00 6,3 93,6 0,8 3,7 246 0 990
20 Colegual INIA 03-05-2026 04:45 6,4 93,4 0,8 3,7 244 0 989
19 Colegual INIA 03-05-2026 04:30 6,4 91,6 0,2 4,1 247 0 990
18 Colegual INIA 03-05-2026 04:15 6,5 91,7 0,6 4,4 248 0 990
17 Colegual INIA 03-05-2026 04:00 6,6 88,5 0,3 4,1 236 0 990
16 Colegual INIA 03-05-2026 03:45 6,6 87 0,2 4,2 240 0 990
15 Colegual INIA 03-05-2026 03:30 6,6 88 0,2 4,1 236 0 991
14 Colegual INIA 03-05-2026 03:15 6,6 88,1 0 3,8 232 0 991
13 Colegual INIA 03-05-2026 03:00 6,7 88,2 0,1 3,6 250 0 991
12 Colegual INIA 03-05-2026 02:45 6,8 86,4 0,4 4,3 246 0 991
11 Colegual INIA 03-05-2026 02:30 7,2 84,8 0 4,3 236 0 991
10 Colegual INIA 03-05-2026 02:15 7,2 81,6 0 3,5 234 0 991
9 Colegual INIA 03-05-2026 02:00 7,1 82,5 0 4,2 243 0 992
8 Colegual INIA 03-05-2026 01:45 7,1 82,6 0 4,3 237 0 992
7 Colegual INIA 03-05-2026 01:30 7,1 83 0 4 242 0 992
6 Colegual INIA 03-05-2026 01:15 7,1 82,4 0 3,7 245 0 992
5 Colegual INIA 03-05-2026 01:00 7,3 82 0 3,5 239 0 992
4 Colegual INIA 03-05-2026 00:45 7,2 81,2 0 2,9 242 0 992
3 Colegual INIA 03-05-2026 00:30 7,1 81,1 0 3,3 249 0 992
2 Colegual INIA 03-05-2026 00:15 6,9 82,3 0 3,7 242 0 992
1 Colegual INIA 03-05-2026 00:00 6,9 82,2 0 3,9 255 0 993